Year,Month,Day,Hour,Minute,Value (Times are PST for temperature in C)
2021,11,26,00,00,-20.50
2021,11,26,00,01,-20.50
2021,11,26,00,02,-20.50
2021,11,26,00,03,-20.50
2021,11,26,00,04,-20.50
2021,11,26,00,05,-20.50
2021,11,26,00,06,-20.50
2021,11,26,00,07,-20.50
2021,11,26,00,08,-20.50
2021,11,26,00,09,-20.60
2021,11,26,00,10,-20.60
2021,11,26,00,11,-20.60
2021,11,26,00,12,-20.60
2021,11,26,00,13,-20.60
2021,11,26,00,14,-20.60
2021,11,26,00,15,-20.60
2021,11,26,00,16,-20.70
2021,11,26,00,17,-20.70
2021,11,26,00,18,-20.70
2021,11,26,00,19,-20.70
2021,11,26,00,20,-20.70
2021,11,26,00,21,-20.70
2021,11,26,00,22,-20.70
2021,11,26,00,23,-20.70
2021,11,26,00,24,-20.70
2021,11,26,00,25,-20.60
2021,11,26,00,26,-20.60
2021,11,26,00,27,-20.60
2021,11,26,00,28,-20.60
2021,11,26,00,29,-20.60
2021,11,26,00,30,-20.60
2021,11,26,00,31,-20.60
2021,11,26,00,32,-20.60
2021,11,26,00,33,-20.60
2021,11,26,00,34,-20.60
2021,11,26,00,35,-20.60
2021,11,26,00,36,-20.60
2021,11,26,00,37,-20.60
2021,11,26,00,38,-20.60
2021,11,26,00,39,-20.60
2021,11,26,00,40,-20.60
2021,11,26,00,41,-20.60
2021,11,26,00,42,-20.60
2021,11,26,00,43,-20.60
2021,11,26,00,44,-20.60
2021,11,26,00,45,-20.60
2021,11,26,00,46,-20.60
2021,11,26,00,47,-20.60
2021,11,26,00,48,-20.60
2021,11,26,00,49,-20.60
2021,11,26,00,50,-20.60
2021,11,26,00,51,-20.70
2021,11,26,00,52,-20.70
2021,11,26,00,53,-20.70
2021,11,26,00,54,-20.70
2021,11,26,00,55,-20.70
2021,11,26,00,56,-20.70
2021,11,26,00,57,-20.70
2021,11,26,00,58,-20.70
2021,11,26,00,59,-20.70
2021,11,26,01,00,-20.70
2021,11,26,01,01,-20.70
2021,11,26,01,02,-20.80
2021,11,26,01,03,-20.80
2021,11,26,01,04,-20.80
2021,11,26,01,05,-20.80
2021,11,26,01,06,-20.80
2021,11,26,01,07,-20.80
2021,11,26,01,08,-20.80
2021,11,26,01,09,-20.80
2021,11,26,01,10,-20.80
2021,11,26,01,11,-20.80
2021,11,26,01,12,-20.80
2021,11,26,01,13,-20.80
2021,11,26,01,14,-20.80
2021,11,26,01,15,-20.80
2021,11,26,01,16,-20.80
2021,11,26,01,17,-20.80
2021,11,26,01,18,-20.90
2021,11,26,01,19,-20.90
2021,11,26,01,20,-20.90
2021,11,26,01,21,-20.90
2021,11,26,01,22,-20.90
2021,11,26,01,23,-20.90
2021,11,26,01,24,-20.90
2021,11,26,01,25,-20.90
2021,11,26,01,26,-20.90
2021,11,26,01,27,-21.00
2021,11,26,01,28,-21.00
2021,11,26,01,29,-21.00
2021,11,26,01,30,-21.00
2021,11,26,01,31,-21.00
2021,11,26,01,32,-21.10
2021,11,26,01,33,-21.10
2021,11,26,01,34,-21.10
2021,11,26,01,35,-21.10
2021,11,26,01,36,-21.10
2021,11,26,01,37,-21.10
2021,11,26,01,38,-21.10
2021,11,26,01,39,-21.10
2021,11,26,01,40,-21.10
2021,11,26,01,41,-21.10
2021,11,26,01,42,-21.20
2021,11,26,01,43,-21.20
2021,11,26,01,44,-21.20
2021,11,26,01,45,-21.20
2021,11,26,01,46,-21.20
2021,11,26,01,47,-21.20
2021,11,26,01,48,-21.20
2021,11,26,01,49,-21.20
2021,11,26,01,50,-21.20
2021,11,26,01,51,-21.20
2021,11,26,01,52,-21.30
2021,11,26,01,53,-21.30
2021,11,26,01,54,-21.30
2021,11,26,01,55,-21.30
2021,11,26,01,56,-21.30
2021,11,26,01,57,-21.30
2021,11,26,01,58,-21.30
2021,11,26,01,59,-21.30
2021,11,26,02,00,-21.40
2021,11,26,02,01,-21.40
2021,11,26,02,02,-21.40
2021,11,26,02,03,-21.40
2021,11,26,02,04,-21.40
2021,11,26,02,05,-21.40
2021,11,26,02,06,-21.40
2021,11,26,02,07,-21.40
2021,11,26,02,08,-21.40
2021,11,26,02,09,-21.50
2021,11,26,02,10,-21.50
2021,11,26,02,11,-21.50
2021,11,26,02,12,-21.50
2021,11,26,02,13,-21.50
2021,11,26,02,14,-21.60
2021,11,26,02,15,-21.60
2021,11,26,02,16,-21.60
2021,11,26,02,17,-21.60
2021,11,26,02,18,-21.60
2021,11,26,02,19,-21.60
2021,11,26,02,20,-21.60
2021,11,26,02,21,-21.70
2021,11,26,02,22,-21.70
2021,11,26,02,23,-21.70
2021,11,26,02,24,-21.70
2021,11,26,02,25,-21.70
2021,11,26,02,26,-21.80
2021,11,26,02,27,-21.80
2021,11,26,02,28,-21.80
2021,11,26,02,29,-21.80
2021,11,26,02,30,-21.80
2021,11,26,02,31,-21.80
2021,11,26,02,32,-21.80
2021,11,26,02,33,-21.80
2021,11,26,02,34,-21.80
2021,11,26,02,35,-21.80
2021,11,26,02,36,-21.90
2021,11,26,02,37,-21.90
2021,11,26,02,38,-21.90
2021,11,26,02,39,-22.00
2021,11,26,02,40,-22.00
2021,11,26,02,41,-22.10
2021,11,26,02,42,-22.10
2021,11,26,02,43,-22.20
2021,11,26,02,44,-22.20
2021,11,26,02,45,-22.20
2021,11,26,02,46,-22.30
2021,11,26,02,47,-22.30
2021,11,26,02,48,-22.40
2021,11,26,02,49,-22.40
2021,11,26,02,50,-22.50
2021,11,26,02,51,-22.50
2021,11,26,02,52,-22.60
2021,11,26,02,53,-22.60
2021,11,26,02,54,-22.60
2021,11,26,02,55,-22.70
2021,11,26,02,56,-22.70
2021,11,26,02,57,-22.70
2021,11,26,02,58,-22.70
2021,11,26,02,59,-22.70
2021,11,26,03,00,-22.70
2021,11,26,03,01,-22.70
2021,11,26,03,02,-22.70
2021,11,26,03,03,-22.70
2021,11,26,03,04,-22.80
2021,11,26,03,05,-22.80
2021,11,26,03,06,-22.80
2021,11,26,03,07,-22.90
2021,11,26,03,08,-22.90
2021,11,26,03,09,-22.90
2021,11,26,03,10,-23.00
2021,11,26,03,11,-23.10
2021,11,26,03,12,-23.20
2021,11,26,03,13,-23.20
2021,11,26,03,14,-23.20
2021,11,26,03,15,-23.30
2021,11,26,03,16,-23.30
2021,11,26,03,17,-23.40
2021,11,26,03,18,-23.40
2021,11,26,03,19,-23.40
2021,11,26,03,20,-23.50
2021,11,26,03,21,-23.50
2021,11,26,03,22,-23.50
2021,11,26,03,23,-23.60
2021,11,26,03,24,-23.60
2021,11,26,03,25,-23.60
2021,11,26,03,26,-23.60
2021,11,26,03,27,-23.70
2021,11,26,03,28,-23.70
2021,11,26,03,29,-23.70
2021,11,26,03,30,-23.70
2021,11,26,03,31,-23.70
2021,11,26,03,32,-23.70
2021,11,26,03,33,-23.70
2021,11,26,03,34,-23.80
2021,11,26,03,35,-23.80
2021,11,26,03,36,-23.80
2021,11,26,03,37,-23.80
2021,11,26,03,38,-23.80
2021,11,26,03,39,-23.90
2021,11,26,03,40,-23.90
2021,11,26,03,41,-23.90
2021,11,26,03,42,-24.00
2021,11,26,03,43,-24.00
2021,11,26,03,44,-24.00
2021,11,26,03,45,-24.10
2021,11,26,03,46,-24.10
2021,11,26,03,47,-24.10
2021,11,26,03,48,-24.10
2021,11,26,03,49,-24.20
2021,11,26,03,50,-24.20
2021,11,26,03,51,-24.20
2021,11,26,03,52,-24.20
2021,11,26,03,53,-24.20
2021,11,26,03,54,-24.20
2021,11,26,03,55,-24.20
2021,11,26,03,56,-24.20
2021,11,26,03,57,-24.20
2021,11,26,03,58,-24.20
2021,11,26,03,59,-24.20
2021,11,26,04,00,-24.20
2021,11,26,04,01,-24.20
2021,11,26,04,02,-24.20
2021,11,26,04,03,-24.20
2021,11,26,04,04,-24.20
2021,11,26,04,05,-24.20
2021,11,26,04,06,-24.20
2021,11,26,04,07,-24.20
2021,11,26,04,08,-24.20
2021,11,26,04,09,-24.30
2021,11,26,04,10,-24.30
2021,11,26,04,11,-24.30
2021,11,26,04,12,-24.30
2021,11,26,04,13,-24.40
2021,11,26,04,14,-24.40
2021,11,26,04,15,-24.40
2021,11,26,04,16,-24.40
2021,11,26,04,17,-24.40
2021,11,26,04,18,-24.40
2021,11,26,04,19,-24.50
2021,11,26,04,20,-24.50
2021,11,26,04,21,-24.50
2021,11,26,04,22,-24.60
2021,11,26,04,23,-24.60
2021,11,26,04,24,-24.60
2021,11,26,04,25,-24.60
2021,11,26,04,26,-24.60
2021,11,26,04,27,-24.60
2021,11,26,04,28,-24.60
2021,11,26,04,29,-24.70
2021,11,26,04,30,-24.70
2021,11,26,04,31,-24.70
2021,11,26,04,32,-24.70
2021,11,26,04,33,-24.80
2021,11,26,04,34,-24.80
2021,11,26,04,35,-24.80
2021,11,26,04,36,-24.80
2021,11,26,04,37,-24.80
2021,11,26,04,38,-24.90
2021,11,26,04,39,-24.90
2021,11,26,04,40,-24.90
2021,11,26,04,41,-24.90
2021,11,26,04,42,-24.90
2021,11,26,04,43,-24.90
2021,11,26,04,44,-24.90
2021,11,26,04,45,-24.90
2021,11,26,04,46,-24.90
2021,11,26,04,47,-24.90
2021,11,26,04,48,-24.90
2021,11,26,04,49,-24.90
2021,11,26,04,50,-24.80
2021,11,26,04,51,-24.80
2021,11,26,04,52,-24.80
2021,11,26,04,53,-24.80
2021,11,26,04,54,-24.80
2021,11,26,04,55,-24.80
2021,11,26,04,56,-24.80
2021,11,26,04,57,-24.80
2021,11,26,04,58,-24.80
2021,11,26,04,59,-24.80
2021,11,26,05,00,-24.80
2021,11,26,05,01,-24.80
2021,11,26,05,02,-24.80
2021,11,26,05,03,-24.80
2021,11,26,05,04,-24.80
2021,11,26,05,05,-24.80
2021,11,26,05,06,-24.80
2021,11,26,05,07,-24.80
2021,11,26,05,08,-24.80
2021,11,26,05,09,-24.80
2021,11,26,05,10,-24.80
2021,11,26,05,11,-24.80
2021,11,26,05,12,-24.90
2021,11,26,05,13,-24.90
2021,11,26,05,14,-24.90
2021,11,26,05,15,-24.90
2021,11,26,05,16,-24.90
2021,11,26,05,17,-24.90
2021,11,26,05,18,-24.90
2021,11,26,05,19,-24.90
2021,11,26,05,20,-24.90
2021,11,26,05,21,-24.90
2021,11,26,05,22,-24.90
2021,11,26,05,23,-24.90
2021,11,26,05,24,-25.00
2021,11,26,05,25,-25.00
2021,11,26,05,26,-25.00
2021,11,26,05,27,-25.00
2021,11,26,05,28,-25.00
2021,11,26,05,29,-25.00
2021,11,26,05,30,-25.00
2021,11,26,05,31,-25.00
2021,11,26,05,32,-25.00
2021,11,26,05,33,-25.10
2021,11,26,05,34,-25.00
2021,11,26,05,35,-25.00
2021,11,26,05,36,-25.00
2021,11,26,05,37,-25.00
2021,11,26,05,38,-25.00
2021,11,26,05,39,-25.00
2021,11,26,05,40,-25.00
2021,11,26,05,41,-25.00
2021,11,26,05,42,-25.00
2021,11,26,05,43,-25.00
2021,11,26,05,44,-25.00
2021,11,26,05,45,-25.00
2021,11,26,05,46,-25.00
2021,11,26,05,47,-25.00
2021,11,26,05,48,-25.10
2021,11,26,05,49,-25.10
2021,11,26,05,50,-25.10
2021,11,26,05,51,-25.10
2021,11,26,05,52,-25.10
2021,11,26,05,53,-25.10
2021,11,26,05,54,-25.10
2021,11,26,05,55,-25.10
2021,11,26,05,56,-25.10
2021,11,26,05,57,-25.10
2021,11,26,05,58,-25.10
2021,11,26,05,59,-25.10
2021,11,26,06,00,-25.10
2021,11,26,06,01,-25.10
2021,11,26,06,02,-25.10
2021,11,26,06,03,-25.10
2021,11,26,06,04,-25.10
2021,11,26,06,05,-25.10
2021,11,26,06,06,-25.10
2021,11,26,06,07,-25.10
2021,11,26,06,08,-25.10
2021,11,26,06,09,-25.10
2021,11,26,06,10,-25.10
2021,11,26,06,11,-25.10
2021,11,26,06,12,-25.10
2021,11,26,06,13,-25.10
2021,11,26,06,14,-25.10
2021,11,26,06,15,-25.10
2021,11,26,06,16,-25.20
2021,11,26,06,17,-25.20
2021,11,26,06,18,-25.20
2021,11,26,06,19,-25.20
2021,11,26,06,20,-25.20
2021,11,26,06,21,-25.20
2021,11,26,06,22,-25.20
2021,11,26,06,23,-25.10
2021,11,26,06,24,-25.10
2021,11,26,06,25,-25.10
2021,11,26,06,26,-25.10
2021,11,26,06,27,-25.10
2021,11,26,06,28,-25.10
2021,11,26,06,29,-25.00
2021,11,26,06,30,-25.00
2021,11,26,06,31,-25.00
2021,11,26,06,32,-25.00
2021,11,26,06,33,-25.00
2021,11,26,06,34,-25.00
2021,11,26,06,35,-25.00
2021,11,26,06,36,-25.00
2021,11,26,06,37,-24.90
2021,11,26,06,38,-25.00
2021,11,26,06,39,-25.00
2021,11,26,06,40,-25.00
2021,11,26,06,41,-25.00
2021,11,26,06,42,-25.00
2021,11,26,06,43,-25.00
2021,11,26,06,44,-24.90
2021,11,26,06,45,-24.90
2021,11,26,06,46,-24.90
2021,11,26,06,47,-24.90
2021,11,26,06,48,-24.90
2021,11,26,06,49,-24.90
2021,11,26,06,50,-24.90
2021,11,26,06,51,-24.80
2021,11,26,06,52,-24.80
2021,11,26,06,53,-24.80
2021,11,26,06,54,-24.80
2021,11,26,06,55,-24.80
2021,11,26,06,56,-24.80
2021,11,26,06,57,-24.80
2021,11,26,06,58,-24.70
2021,11,26,06,59,-24.70
2021,11,26,07,00,-24.70
2021,11,26,07,01,-24.70
2021,11,26,07,02,-24.70
2021,11,26,07,03,-24.70
2021,11,26,07,04,-24.70
2021,11,26,07,05,-24.70
2021,11,26,07,06,-24.70
2021,11,26,07,07,-24.70
2021,11,26,07,08,-24.70
2021,11,26,07,09,-24.70
2021,11,26,07,10,-24.70
2021,11,26,07,11,-24.70
2021,11,26,07,12,-24.70
2021,11,26,07,13,-24.70
2021,11,26,07,14,-24.70
2021,11,26,07,15,-24.70
2021,11,26,07,16,-24.60
2021,11,26,07,17,-24.60
2021,11,26,07,18,-24.60
2021,11,26,07,19,-24.70
2021,11,26,07,20,-24.60
2021,11,26,07,21,-24.60
2021,11,26,07,22,-24.70
2021,11,26,07,23,-24.70
2021,11,26,07,24,-24.70
2021,11,26,07,25,-24.70
2021,11,26,07,26,-24.70
2021,11,26,07,27,-24.70
2021,11,26,07,28,-24.70
2021,11,26,07,29,-24.70
2021,11,26,07,30,-24.70
2021,11,26,07,31,-24.70
2021,11,26,07,32,-24.70
2021,11,26,07,33,-24.70
2021,11,26,07,34,-24.70
2021,11,26,07,35,-24.70
2021,11,26,07,36,-24.70
2021,11,26,07,37,-24.70
2021,11,26,07,38,-24.70
2021,11,26,07,39,-24.70
2021,11,26,07,40,-24.70
2021,11,26,07,41,-24.70
2021,11,26,07,42,-24.60
2021,11,26,07,43,-24.60
2021,11,26,07,44,-24.60
2021,11,26,07,45,-24.60
2021,11,26,07,46,-24.60
2021,11,26,07,47,-24.60
2021,11,26,07,48,-24.60
2021,11,26,07,49,-24.60
2021,11,26,07,50,-24.60
2021,11,26,07,51,-24.60
2021,11,26,07,52,-24.50
2021,11,26,07,53,-24.50
2021,11,26,07,54,-24.50
2021,11,26,07,55,-24.50
2021,11,26,07,56,-24.50
2021,11,26,07,57,-24.40
2021,11,26,07,58,-24.40
2021,11,26,07,59,-24.40
2021,11,26,08,00,-24.40
2021,11,26,08,01,-24.40
2021,11,26,08,02,-24.40
2021,11,26,08,03,-24.40
2021,11,26,08,04,-24.40
2021,11,26,08,05,-24.40
2021,11,26,08,06,-24.40
2021,11,26,08,07,-24.40
2021,11,26,08,08,-24.40
2021,11,26,08,09,-24.40
2021,11,26,08,10,-24.40
2021,11,26,08,11,-24.40
2021,11,26,08,12,-24.40
2021,11,26,08,13,-24.40
2021,11,26,08,14,-24.30
2021,11,26,08,15,-24.30
2021,11,26,08,16,-24.30
2021,11,26,08,17,-24.30
2021,11,26,08,18,-24.30
2021,11,26,08,19,-24.30
2021,11,26,08,20,-24.30
2021,11,26,08,21,-24.30
2021,11,26,08,22,-24.30
2021,11,26,08,23,-24.30
2021,11,26,08,24,-24.30
2021,11,26,08,25,-24.40
2021,11,26,08,26,-24.40
2021,11,26,08,27,-24.40
2021,11,26,08,28,-24.40
2021,11,26,08,29,-24.40
2021,11,26,08,30,-24.40
2021,11,26,08,31,-24.40
2021,11,26,08,32,-24.40
2021,11,26,08,33,-24.40
2021,11,26,08,34,-24.40
2021,11,26,08,35,-24.40
2021,11,26,08,36,-24.40
2021,11,26,08,37,-24.40
2021,11,26,08,38,-24.30
2021,11,26,08,39,-24.30
2021,11,26,08,40,-24.30
2021,11,26,08,41,-24.30
2021,11,26,08,42,-24.30
2021,11,26,08,43,-24.30
2021,11,26,08,44,-24.30
2021,11,26,08,45,-24.30
2021,11,26,08,46,-24.30
2021,11,26,08,47,-24.20
2021,11,26,08,48,-24.30
2021,11,26,08,49,-24.20
2021,11,26,08,50,-24.20
2021,11,26,08,51,-24.20
2021,11,26,08,52,-24.20
2021,11,26,08,53,-24.20
2021,11,26,08,54,-24.20
2021,11,26,08,55,-24.20
2021,11,26,08,56,-24.20
2021,11,26,08,57,-24.20
2021,11,26,08,58,-24.20
2021,11,26,08,59,-24.20
2021,11,26,09,00,-24.20
2021,11,26,09,01,-24.20
2021,11,26,09,02,-24.20
2021,11,26,09,03,-24.20
2021,11,26,09,04,-24.20
2021,11,26,09,05,-24.20
2021,11,26,09,06,-24.20
2021,11,26,09,07,-24.20
2021,11,26,09,08,-24.20
2021,11,26,09,09,-24.20
2021,11,26,09,10,-24.20
2021,11,26,09,11,-24.20
2021,11,26,09,12,-24.20
2021,11,26,09,13,-24.20
2021,11,26,09,14,-24.20
2021,11,26,09,15,-24.20
2021,11,26,09,16,-24.10
2021,11,26,09,17,-24.10
2021,11,26,09,18,-24.10
2021,11,26,09,19,-24.10
2021,11,26,09,20,-24.10
2021,11,26,09,21,-24.10
2021,11,26,09,22,-24.10
2021,11,26,09,23,-24.10
2021,11,26,09,24,-24.10
2021,11,26,09,25,-24.10
2021,11,26,09,26,-24.10
2021,11,26,09,27,-24.10
2021,11,26,09,28,-24.10
2021,11,26,09,29,-24.10
2021,11,26,09,30,-24.10
2021,11,26,09,31,-24.10
2021,11,26,09,32,-24.10
2021,11,26,09,33,-24.10
2021,11,26,09,34,-24.10
2021,11,26,09,35,-24.10
2021,11,26,09,36,-24.10
2021,11,26,09,37,-24.10
2021,11,26,09,38,-24.10
2021,11,26,09,39,-24.10
2021,11,26,09,40,-24.10
2021,11,26,09,41,-24.10
2021,11,26,09,42,-24.10
2021,11,26,09,43,-24.10
2021,11,26,09,44,-24.10
2021,11,26,09,45,-24.10
2021,11,26,09,46,-24.10
2021,11,26,09,47,-24.10
2021,11,26,09,48,-24.10
2021,11,26,09,49,-24.10
2021,11,26,09,50,-24.10
2021,11,26,09,51,-24.10
2021,11,26,09,52,-24.10
2021,11,26,09,53,-24.20
2021,11,26,09,54,-24.20
2021,11,26,09,55,-24.20
2021,11,26,09,56,-24.20
2021,11,26,09,57,-24.20
2021,11,26,09,58,-24.20
2021,11,26,09,59,-24.20
2021,11,26,10,00,-24.20
2021,11,26,10,01,-24.20
2021,11,26,10,02,-24.30
2021,11,26,10,03,-24.30
2021,11,26,10,04,-24.30
2021,11,26,10,05,-24.30
2021,11,26,10,06,-24.30
2021,11,26,10,07,-24.30
2021,11,26,10,08,-24.30
2021,11,26,10,09,-24.40
2021,11,26,10,10,-24.40
2021,11,26,10,11,-24.40
2021,11,26,10,12,-24.40
2021,11,26,10,13,-24.40
2021,11,26,10,14,-24.40
2021,11,26,10,15,-24.50
2021,11,26,10,16,-24.50
2021,11,26,10,17,-24.50
2021,11,26,10,18,-24.60
2021,11,26,10,19,-24.60
2021,11,26,10,20,-24.60
2021,11,26,10,21,-24.70
2021,11,26,10,22,-24.70
2021,11,26,10,23,-24.70
2021,11,26,10,24,-24.70
2021,11,26,10,25,-24.80
2021,11,26,10,26,-24.80
2021,11,26,10,27,-24.80
2021,11,26,10,28,-24.80
2021,11,26,10,29,-24.80
2021,11,26,10,30,-24.90
2021,11,26,10,31,-24.90
2021,11,26,10,32,-24.90
2021,11,26,10,33,-24.90
2021,11,26,10,34,-25.00
2021,11,26,10,35,-25.00
2021,11,26,10,36,-25.10
2021,11,26,10,37,-25.10
2021,11,26,10,38,-25.10
2021,11,26,10,39,-25.10
2021,11,26,10,40,-25.10
2021,11,26,10,41,-25.10
2021,11,26,10,42,-25.20
2021,11,26,10,43,-25.20
2021,11,26,10,44,-25.20
2021,11,26,10,45,-25.20
2021,11,26,10,46,-25.20
2021,11,26,10,47,-25.20
2021,11,26,10,48,-25.20
2021,11,26,10,49,-25.20
2021,11,26,10,50,-25.30
2021,11,26,10,51,-25.30
2021,11,26,10,52,-25.30
2021,11,26,10,53,-25.30
2021,11,26,10,54,-25.30
2021,11,26,10,55,-25.30
2021,11,26,10,56,-25.30
2021,11,26,10,57,-25.30
2021,11,26,10,58,-25.30
2021,11,26,10,59,-25.30
2021,11,26,11,00,-25.30
2021,11,26,11,01,-25.30
2021,11,26,11,02,-25.30
2021,11,26,11,03,-25.30
2021,11,26,11,04,-25.30
2021,11,26,11,05,-25.30
2021,11,26,11,06,-25.30
2021,11,26,11,07,-25.30
2021,11,26,11,08,-25.30
2021,11,26,11,09,-25.30
2021,11,26,11,10,-25.30
2021,11,26,11,11,-25.30
2021,11,26,11,12,-25.30
2021,11,26,11,13,-25.30
2021,11,26,11,14,-25.30
2021,11,26,11,15,-25.30
2021,11,26,11,16,-25.30
2021,11,26,11,17,-25.30
2021,11,26,11,18,-25.30
2021,11,26,11,19,-25.30
2021,11,26,11,20,-25.30
2021,11,26,11,21,-25.30
2021,11,26,11,22,-25.30
2021,11,26,11,23,-25.30
2021,11,26,11,24,-25.30
2021,11,26,11,25,-25.30
2021,11,26,11,26,-25.30
2021,11,26,11,27,-25.30
2021,11,26,11,28,-25.30
2021,11,26,11,29,-25.30
2021,11,26,11,30,-25.30
2021,11,26,11,31,-25.30
2021,11,26,11,32,-25.30
2021,11,26,11,33,-25.30
2021,11,26,11,34,-25.30
2021,11,26,11,35,-25.30
2021,11,26,11,36,-25.30
2021,11,26,11,37,-25.30
2021,11,26,11,38,-25.30
2021,11,26,11,39,-25.30
2021,11,26,11,40,-25.30
2021,11,26,11,41,-25.20
2021,11,26,11,42,-25.20
2021,11,26,11,43,-25.20
2021,11,26,11,44,-25.20
2021,11,26,11,45,-25.20
2021,11,26,11,46,-25.20
2021,11,26,11,47,-25.10
2021,11,26,11,48,-25.10
2021,11,26,11,49,-25.10
2021,11,26,11,50,-25.10
2021,11,26,11,51,-25.10
2021,11,26,11,52,-25.00
2021,11,26,11,53,-25.00
2021,11,26,11,54,-25.00
2021,11,26,11,55,-24.90
2021,11,26,11,56,-24.90
2021,11,26,11,57,-24.90
2021,11,26,11,58,-24.90
2021,11,26,11,59,-24.80
2021,11,26,12,00,-24.80
2021,11,26,12,01,-24.80
2021,11,26,12,02,-24.80
2021,11,26,12,03,-24.80
2021,11,26,12,04,-24.80
2021,11,26,12,05,-24.70
2021,11,26,12,06,-24.70
2021,11,26,12,07,-24.70
2021,11,26,12,08,-24.70
2021,11,26,12,09,-24.70
2021,11,26,12,10,-24.70
2021,11,26,12,11,-24.70
2021,11,26,12,12,-24.60
2021,11,26,12,13,-24.60
2021,11,26,12,14,-24.60
2021,11,26,12,15,-24.60
2021,11,26,12,16,-24.60
2021,11,26,12,17,-24.50
2021,11,26,12,18,-24.50
2021,11,26,12,19,-24.50
2021,11,26,12,20,-24.50
2021,11,26,12,21,-24.50
2021,11,26,12,22,-24.40
2021,11,26,12,23,-24.40
2021,11,26,12,24,-24.40
2021,11,26,12,25,-24.40
2021,11,26,12,26,-24.40
2021,11,26,12,27,-24.40
2021,11,26,12,28,-24.40
2021,11,26,12,29,-24.30
2021,11,26,12,30,-24.40
2021,11,26,12,31,-24.30
2021,11,26,12,32,-24.30
2021,11,26,12,33,-24.30
2021,11,26,12,34,-24.30
2021,11,26,12,35,-24.30
2021,11,26,12,36,-24.30
2021,11,26,12,37,-24.30
2021,11,26,12,38,-24.30
2021,11,26,12,39,-24.30
2021,11,26,12,40,-24.30
2021,11,26,12,41,-24.30
2021,11,26,12,42,-24.30
2021,11,26,12,43,-24.30
2021,11,26,12,44,-24.30
2021,11,26,12,45,-24.30
2021,11,26,12,46,-24.30
2021,11,26,12,47,-24.30
2021,11,26,12,48,-24.30
2021,11,26,12,49,-24.30
2021,11,26,12,50,-24.30
2021,11,26,12,51,-24.30
2021,11,26,12,52,-24.30
2021,11,26,12,53,-24.20
2021,11,26,12,54,-24.20
2021,11,26,12,55,-24.20
2021,11,26,12,56,-24.20
2021,11,26,12,57,-24.20
2021,11,26,12,58,-24.20
2021,11,26,12,59,-24.20
2021,11,26,13,00,-24.20
2021,11,26,13,01,-24.20
2021,11,26,13,02,-24.20
2021,11,26,13,03,-24.20
2021,11,26,13,04,-24.20
2021,11,26,13,05,-24.10
2021,11,26,13,06,-24.10
2021,11,26,13,07,-24.10
2021,11,26,13,08,-24.10
2021,11,26,13,09,-24.10
2021,11,26,13,10,-24.10
2021,11,26,13,11,-24.10
2021,11,26,13,12,-24.10
2021,11,26,13,13,-24.10
2021,11,26,13,14,-24.10
2021,11,26,13,15,-24.00
2021,11,26,13,16,-24.00
2021,11,26,13,17,-24.00
2021,11,26,13,18,-23.90
2021,11,26,13,19,-23.90
2021,11,26,13,20,-23.90
2021,11,26,13,21,-23.80
2021,11,26,13,22,-23.80
2021,11,26,13,23,-23.80
2021,11,26,13,24,-23.80
2021,11,26,13,25,-23.80
2021,11,26,13,26,-23.70
2021,11,26,13,27,-23.70
2021,11,26,13,28,-23.70
2021,11,26,13,29,-23.70
2021,11,26,13,30,-23.70
2021,11,26,13,31,-23.60
2021,11,26,13,32,-23.60
2021,11,26,13,33,-23.60
2021,11,26,13,34,-23.60
2021,11,26,13,35,-23.60
2021,11,26,13,36,-23.50
2021,11,26,13,37,-23.50
2021,11,26,13,38,-23.50
2021,11,26,13,39,-23.50
2021,11,26,13,40,-23.40
2021,11,26,13,41,-23.40
2021,11,26,13,42,-23.40
2021,11,26,13,43,-23.40
2021,11,26,13,44,-23.40
2021,11,26,13,45,-23.30
2021,11,26,13,46,-23.30
2021,11,26,13,47,-23.30
2021,11,26,13,48,-23.30
2021,11,26,13,49,-23.30
2021,11,26,13,50,-23.20
2021,11,26,13,51,-23.20
2021,11,26,13,52,-23.20
2021,11,26,13,53,-23.20
2021,11,26,13,54,-23.20
2021,11,26,13,55,-23.20
2021,11,26,13,56,-23.20
2021,11,26,13,57,-23.10
2021,11,26,13,58,-23.10
2021,11,26,13,59,-23.10
2021,11,26,14,00,-23.10
2021,11,26,14,01,-23.10
2021,11,26,14,02,-23.10
2021,11,26,14,03,-23.10
2021,11,26,14,04,-23.10
2021,11,26,14,05,-23.10
2021,11,26,14,06,-23.10
2021,11,26,14,07,-23.10
2021,11,26,14,08,-23.10
2021,11,26,14,09,-23.10
2021,11,26,14,10,-23.10
2021,11,26,14,11,-23.10
2021,11,26,14,12,-23.10
2021,11,26,14,13,-23.10
2021,11,26,14,14,-23.10
2021,11,26,14,15,-23.10
2021,11,26,14,16,-23.10
2021,11,26,14,17,-23.10
2021,11,26,14,18,-23.10
2021,11,26,14,19,-23.10
2021,11,26,14,20,-23.20
2021,11,26,14,21,-23.20
2021,11,26,14,22,-23.20
2021,11,26,14,23,-23.20
2021,11,26,14,24,-23.20
2021,11,26,14,25,-23.20
2021,11,26,14,26,-23.20
2021,11,26,14,27,-23.20
2021,11,26,14,28,-23.20
2021,11,26,14,29,-23.20
2021,11,26,14,30,-23.20
2021,11,26,14,31,-23.20
2021,11,26,14,32,-23.20
2021,11,26,14,33,-23.20
2021,11,26,14,34,-23.20
2021,11,26,14,35,-23.20
2021,11,26,14,36,-23.20
2021,11,26,14,37,-23.20
2021,11,26,14,38,-23.20
2021,11,26,14,39,-23.20
2021,11,26,14,40,-23.20
2021,11,26,14,41,-23.20
2021,11,26,14,42,-23.20
2021,11,26,14,43,-23.20
2021,11,26,14,44,-23.20
2021,11,26,14,45,-23.20
2021,11,26,14,46,-23.20
2021,11,26,14,47,-23.20
2021,11,26,14,48,-23.20
2021,11,26,14,49,-23.20
2021,11,26,14,50,-23.10
2021,11,26,14,51,-23.10
2021,11,26,14,52,-23.10
2021,11,26,14,53,-23.10
2021,11,26,14,54,-23.10
2021,11,26,14,55,-23.10
2021,11,26,14,56,-23.10
2021,11,26,14,57,-23.10
2021,11,26,14,58,-23.10
2021,11,26,14,59,-23.10
2021,11,26,15,00,-23.10
2021,11,26,15,01,-23.00
2021,11,26,15,02,-23.00
2021,11,26,15,03,-23.00
2021,11,26,15,04,-23.00
2021,11,26,15,05,-22.90
2021,11,26,15,06,-22.90
2021,11,26,15,07,-22.90
2021,11,26,15,08,-22.90
2021,11,26,15,09,-22.90
2021,11,26,15,10,-22.90
2021,11,26,15,11,-22.90
2021,11,26,15,12,-22.90
2021,11,26,15,13,-22.90
2021,11,26,15,14,-22.90
2021,11,26,15,15,-22.90
2021,11,26,15,16,-22.90
2021,11,26,15,17,-22.90
2021,11,26,15,18,-22.90
2021,11,26,15,19,-22.90
2021,11,26,15,20,-22.90
2021,11,26,15,21,-22.90
2021,11,26,15,22,-22.90
2021,11,26,15,23,-22.80
2021,11,26,15,24,-22.80
2021,11,26,15,25,-22.80
2021,11,26,15,26,-22.80
2021,11,26,15,27,-22.80
2021,11,26,15,28,-22.80
2021,11,26,15,29,-22.80
2021,11,26,15,30,-22.80
2021,11,26,15,31,-22.80
2021,11,26,15,32,-22.80
2021,11,26,15,33,-22.80
2021,11,26,15,34,-22.80
2021,11,26,15,35,-22.70
2021,11,26,15,36,-22.70
2021,11,26,15,37,-22.70
2021,11,26,15,38,-22.70
2021,11,26,15,39,-22.70
2021,11,26,15,40,-22.70
2021,11,26,15,41,-22.70
2021,11,26,15,42,-22.70
2021,11,26,15,43,-22.70
2021,11,26,15,44,-22.70
2021,11,26,15,45,-22.70
2021,11,26,15,46,-22.70
2021,11,26,15,47,-22.70
2021,11,26,15,48,-22.80
2021,11,26,15,49,-22.80
2021,11,26,15,50,-22.80
2021,11,26,15,51,-22.80
2021,11,26,15,52,-22.80
2021,11,26,15,53,-22.80
2021,11,26,15,54,-22.80
2021,11,26,15,55,-22.80
2021,11,26,15,56,-22.80
2021,11,26,15,57,-22.80
2021,11,26,15,58,-22.80
2021,11,26,15,59,-22.80
2021,11,26,16,00,-22.80
2021,11,26,16,01,-22.90
2021,11,26,16,02,-22.80
2021,11,26,16,03,-22.80
2021,11,26,16,04,-22.80
2021,11,26,16,05,-22.80
2021,11,26,16,06,-22.90
2021,11,26,16,07,-22.90
2021,11,26,16,08,-22.80
2021,11,26,16,09,-22.80
2021,11,26,16,10,-22.90
2021,11,26,16,11,-22.90
2021,11,26,16,12,-22.90
2021,11,26,16,13,-22.90
2021,11,26,16,14,-22.90
2021,11,26,16,15,-22.90
2021,11,26,16,16,-22.90
2021,11,26,16,17,-22.90
2021,11,26,16,18,-22.90
2021,11,26,16,19,-23.00
2021,11,26,16,20,-23.00
2021,11,26,16,21,-23.00
2021,11,26,16,22,-23.00
2021,11,26,16,23,-23.10
2021,11,26,16,24,-23.10
2021,11,26,16,25,-23.10
2021,11,26,16,26,-23.10
2021,11,26,16,27,-23.10
2021,11,26,16,28,-23.10
2021,11,26,16,29,-23.10
2021,11,26,16,30,-23.10
2021,11,26,16,31,-23.10
2021,11,26,16,32,-23.10
2021,11,26,16,33,-23.10
2021,11,26,16,34,-23.20
2021,11,26,16,35,-23.20
2021,11,26,16,36,-23.20